Theta_e
352 355 358 360 361 362 362 361 359 359 357 355 356 356 356 356 356 356 356 356 356 356 355 355 355 355 355 355 355 355 355 355 354 354 354 354 353 353 352 352 352 352 352 352 352 353 353 352 352 352 352 352 352 352 352 351 350 350 350 349 349 350 350 350 350 349 348 347 348 348 347 347 347 348 346 346 346 345 344 344 342 337 335 336 339
351 356 358 361 361 361 362 360 359 359 358 356 356 356 356 356 356 356 356 356 356 356 355 355 355 355 355 355 355 355 355 354 354 354 354 353 353 353 352 352 352 352 352 352 352 353 352 352 352 352 352 352 351 351 350 350 350 349 349 349 349 348 349 349 349 349 349 348 348 348 346 345 345 344 345 345 345 344 343 342 340 336 334 338 338
354 356 359 361 362 362 361 361 360 359 357 356 356 356 356 356 356 355 355 355 356 356 355 355 355 355 355 355 354 355 355 355 354 354 353 353 353 353 352 352 352 352 352 352 352 352 351 352 352 352 352 353 352 352 352 350 349 349 349 349 348 347 347 347 346 346 345 344 345 345 346 345 344 343 342 342 342 340 338 338 337 337 332 336 336
353 356 360 362 362 361 361 361 360 359 358 356 356 356 356 356 355 355 355 355 355 355 355 355 354 355 354 354 355 355 355 354 354 354 353 353 353 353 353 353 352 352 352 352 352 352 351 352 352 351 352 352 352 352 351 350 349 349 348 348 347 346 346 345 343 343 342 342 342 341 340 336 339 342 343 341 337 337 336 336 336 335 335 335 335
354 357 360 361 361 361 361 360 360 360 358 356 357 356 356 355 355 355 355 355 355 355 355 354 354 355 355 354 355 355 355 354 354 353 353 353 353 352 352 353 353 353 353 353 353 352 352 352 352 352 351 352 351 352 351 351 350 350 349 348 348 347 347 346 346 342 341 339 339 338 331 333 335 339 339 335 334 335 335 335 334 335 335 335 334
354 358 360 361 360 360 360 360 360 359 358 357 356 356 355 355 355 355 355 355 355 354 355 355 354 354 355 355 355 354 355 354 354 353 353 353 353 352 352 353 353 353 353 353 352 352 351 352 352 352 352 352 352 351 351 349 349 349 349 348 347 347 347 347 343 343 341 339 338 332 329 331 333 336 340 338 335 337 337 336 336 336 335 334 336
356 358 359 360 360 360 360 360 359 359 358 356 356 356 356 356 355 356 355 355 355 355 354 354 354 355 355 355 355 355 355 354 354 353 353 352 352 352 352 352 353 353 353 353 352 352 351 352 351 352 351 352 352 351 350 349 349 349 350 349 344 345 346 343 341 340 339 334 328 328 328 330 330 331 337 336 338 338 338 338 335 333 337 336 335
356 357 359 359 359 360 360 360 360 359 359 356 356 356 356 356 356 355 355 355 354 354 354 354 354 355 355 355 355 355 355 354 354 353 353 352 353 352 351 351 352 352 352 352 351 351 351 351 352 352 352 352 351 350 350 350 350 350 346 344 343 341 340 339 338 338 336 327 326 326 327 328 330 327 338 340 339 339 335 333 337 338 335 335 338
353 356 358 359 359 359 359 359 359 360 359 357 357 356 356 356 355 355 355 354 354 354 354 354 354 354 355 355 355 355 355 354 353 353 353 352 351 351 351 351 351 352 352 351 351 351 351 351 351 351 352 352 350 350 350 349 350 345 345 345 343 341 340 338 337 336 330 327 326 325 327 327 327 330 335 335 335 337 338 336 336 335 332 335 335
352 354 357 358 358 360 359 359 359 359 358 357 357 356 356 356 356 355 355 354 354 354 354 354 354 355 354 355 355 355 354 354 354 354 353 353 352 352 351 351 351 351 352 352 351 351 351 351 351 351 352 351 349 349 349 350 349 343 343 343 342 341 340 338 337 335 328 328 329 330 330 333 329 331 335 337 338 338 335 336 334 333 334 334 333
351 353 356 358 359 360 358 358 358 358 358 358 357 356 355 356 356 355 355 354 354 354 354 354 354 355 355 355 355 354 354 354 354 354 353 352 352 352 352 351 351 350 351 352 352 351 351 351 351 351 351 349 349 349 349 351 350 344 344 343 341 339 338 337 334 327 328 328 328 329 335 337 330 330 338 338 337 337 337 336 334 335 332 332 334
351 354 356 357 360 359 358 358 358 358 358 357 357 356 356 356 355 355 355 354 354 354 354 354 354 354 355 354 354 354 354 355 354 354 353 352 353 353 353 352 351 350 350 351 351 352 351 351 351 350 349 348 348 349 349 351 349 342 342 341 340 338 337 337 330 329 328 329 329 330 331 331 331 333 334 333 336 336 334 334 335 332 332 333 334
351 354 356 357 357 359 358 357 357 358 358 357 356 356 356 356 355 355 355 354 354 354 354 354 354 354 354 355 355 355 354 354 354 354 353 353 353 352 352 352 352 351 351 351 352 351 350 351 350 349 348 347 348 348 349 350 349 343 340 339 339 338 338 336 329 328 328 327 328 328 328 329 331 336 336 337 336 333 334 336 333 332 334 335 334
350 353 355 356 356 360 358 357 357 357 357 357 356 356 355 355 355 355 355 354 354 354 354 354 354 354 355 355 355 355 354 354 354 354 353 353 352 353 352 352 352 352 351 351 351 351 350 350 349 349 348 347 348 348 349 349 350 344 340 340 339 338 338 336 334 329 329 328 330 328 328 331 331 335 338 338 335 334 334 334 332 334 335 335 334
350 352 354 355 356 357 360 358 357 357 356 356 355 355 355 355 355 355 354 354 354 354 354 354 354 354 354 355 355 355 354 354 354 354 354 353 353 353 353 353 352 352 351 351 351 350 350 349 349 348 347 347 347 347 348 349 349 349 340 338 339 338 336 330 329 328 328 330 328 328 329 331 334 334 335 335 333 331 334 334 333 334 334 333 331
351 352 354 354 355 356 356 359 358 357 356 355 355 354 354 354 354 354 354 354 353 353 353 354 354 354 354 355 355 355 354 354 354 354 354 353 353 353 353 353 352 351 351 351 350 350 350 349 349 348 347 346 347 346 348 348 348 349 345 338 338 337 336 332 327 326 326 326 327 328 329 330 333 333 330 330 332 334 334 332 332 331 331 331 330
351 352 352 353 354 355 356 356 357 357 357 356 355 354 354 353 353 353 353 353 353 353 353 354 354 354 354 355 354 355 354 354 354 354 353 353 353 352 352 352 351 351 351 350 350 350 350 349 349 348 347 346 346 347 347 347 347 348 342 339 337 336 335 332 326 325 326 329 328 327 329 330 333 330 331 334 333 332 332 332 332 331 331 330 328
350 351 351 353 354 354 355 355 356 355 354 356 355 354 354 353 353 353 353 353 353 353 353 353 354 354 354 354 354 354 354 354 353 353 353 353 353 352 352 351 351 350 350 350 349 350 349 349 349 348 347 346 346 346 346 347 348 348 340 338 337 336 335 334 327 328 328 331 327 330 329 332 333 333 333 333 332 332 332 331 329 329 330 330 330
349 350 351 352 352 353 354 354 354 353 354 353 353 353 354 353 353 353 353 353 353 353 353 353 353 354 354 354 354 353 354 353 353 353 353 353 352 352 351 351 351 350 350 350 350 349 349 349 348 348 347 347 346 346 346 346 348 343 340 339 338 337 337 332 327 326 328 327 327 327 329 330 330 334 333 333 332 330 330 331 330 332 330 327 327
347 348 349 350 351 351 352 353 353 353 353 352 352 352 353 353 353 354 353 353 353 353 353 353 353 353 353 353 354 353 353 352 353 352 352 352 352 350 351 350 350 350 349 349 349 349 349 349 348 348 348 347 347 346 346 346 347 343 340 339 338 336 326 325 325 325 326 328 329 326 332 332 333 334 334 334 331 329 332 331 331 330 328 328 330
345 345 345 347 348 349 350 351 352 352 351 351 351 351 352 353 353 353 353 353 353 353 353 353 352 353 352 353 353 349 346 347 349 347 351 349 351 351 351 350 350 349 349 349 349 349 348 348 348 348 348 347 347 346 346 346 347 344 338 337 335 325 325 325 325 328 328 329 330 327 332 332 332 333 332 331 331 331 331 330 330 329 329 329 328
339 340 342 345 346 346 348 349 350 350 350 350 350 350 351 351 349 350 351 351 352 352 351 349 353 348 353 351 346 349 346 344 345 351 347 348 348 351 350 351 349 349 349 349 348 349 348 348 348 348 348 347 346 338 341 348 347 342 338 335 327 325 326 325 325 326 327 327 331 330 332 332 332 331 329 330 330 330 330 329 329 329 329 328 327
335 336 338 342 344 345 346 346 348 349 349 349 349 349 349 348 348 348 349 350 350 351 348 349 348 347 348 348 347 344 344 343 344 349 347 350 348 350 350 350 350 348 348 348 348 348 348 348 348 348 347 347 339 336 335 335 340 344 337 329 326 325 325 325 324 324 325 327 324 332 333 332 331 330 332 330 331 330 329 329 329 329 328 327 326
334 336 337 341 342 344 344 344 346 347 347 348 348 348 347 347 347 347 346 346 347 348 346 347 347 347 348 346 344 344 343 340 351 351 350 346 346 350 349 349 349 349 348 347 347 348 348 349 348 348 347 344 336 337 336 335 336 337 331 327 325 325 324 324 325 324 326 329 326 332 332 331 329 328 329 329 329 330 330 329 329 328 327 327 326
333 336 336 339 341 343 342 343 345 345 344 344 346 346 346 347 346 345 345 344 343 345 345 345 346 346 346 345 344 343 342 341 342 344 342 341 341 343 345 345 343 342 347 339 340 344 345 341 342 343 338 339 338 337 336 337 338 335 328 326 325 324 325 326 325 324 324 326 328 331 331 330 329 328 329 329 329 329 329 329 327 328 327 327 327
334 334 334 337 340 342 342 342 343 342 342 341 342 346 346 345 344 343 343 343 342 343 343 343 344 345 345 344 344 342 341 340 338 338 342 341 340 340 342 342 340 341 343 339 339 339 338 340 340 338 338 338 338 337 337 337 338 334 327 325 325 325 325 325 326 325 325 325 329 332 331 331 330 329 328 329 330 329 328 328 328 327 326 326 326
331 332 334 334 337 340 341 341 341 341 341 342 343 343 342 344 343 341 341 340 341 341 341 341 343 344 345 344 341 340 339 338 339 338 340 341 341 339 340 341 340 339 341 339 338 338 339 340 340 338 337 339 340 339 338 339 338 331 326 325 325 324 325 325 325 325 325 326 330 331 331 331 331 331 329 328 328 329 328 326 326 326 326 325 325
330 330 334 334 336 337 339 340 337 336 335 338 340 339 341 342 342 343 341 340 340 339 340 339 340 342 344 343 341 339 339 338 339 339 340 339 339 341 341 340 340 339 341 340 339 338 338 338 339 339 340 340 340 338 337 338 337 331 327 325 324 324 324 325 326 326 326 325 326 330 331 330 330 330 330 328 328 328 328 327 326 325 326 325 326
329 330 332 334 334 336 337 336 335 335 335 336 336 336 339 339 341 341 339 343 338 338 338 339 338 340 341 342 341 338 338 339 339 340 339 339 339 340 340 340 340 340 340 339 339 339 338 337 339 339 339 339 337 336 335 336 336 333 328 325 324 323 324 325 326 326 325 325 324 328 331 331 330 329 329 329 327 327 327 327 327 327 326 325 325
329 330 331 332 333 335 334 334 334 335 335 336 336 336 337 337 339 339 339 341 338 337 337 337 336 338 339 341 341 339 338 339 340 340 339 339 338 338 339 340 340 340 340 338 338 337 337 336 337 339 339 339 339 337 335 335 335 335 329 325 324 323 324 325 326 326 326 325 324 327 331 330 330 329 329 330 330 328 327 327 327 327 327 326 325
330 328 329 331 333 333 332 334 335 336 335 335 335 335 336 335 337 339 339 339 338 338 337 337 336 336 338 340 340 340 338 339 341 340 340 338 337 337 337 338 338 338 340 339 336 337 336 336 337 338 337 338 338 336 335 334 333 335 332 326 324 323 323 324 325 326 326 325 325 325 327 330 329 330 330 330 329 328 327 327 327 327 326 325 325
329 328 330 331 331 332 333 334 336 335 335 335 336 335 335 335 335 336 338 338 338 338 337 337 337 336 337 337 339 339 340 337 340 340 340 338 336 335 336 336 337 338 338 338 334 336 335 336 337 338 338 339 337 335 335 333 332 334 332 326 325 323 323 324 325 326 326 325 325 325 325 326 329 329 330 330 329 328 329 327 327 327 327 326 326
329 329 329 331 331 332 333 334 335 335 335 335 336 336 336 335 335 334 335 336 336 337 337 337 337 337 337 338 338 338 339 336 337 339 340 338 336 335 334 335 336 336 336 336 334 335 332 333 334 337 336 337 334 333 335 333 332 333 331 326 324 323 323 324 324 325 325 325 325 325 324 325 324 328 328 328 328 329 330 328 326 327 327 327 326
327 328 329 329 330 330 332 333 334 334 336 336 336 335 336 336 336 335 335 334 335 335 337 337 337 337 337 337 337 338 338 337 336 337 338 338 337 335 334 333 335 335 335 334 332 333 331 330 331 332 336 334 332 332 332 332 332 332 330 326 324 324 323 323 323 324 325 324 325 325 324 323 323 323 325 328 327 329 329 328 327 327 327 327 326
329 327 328 327 330 329 330 329 334 332 336 336 336 335 335 336 336 336 335 333 334 334 334 335 335 337 338 337 337 338 338 337 337 336 336 337 337 336 335 334 335 335 334 331 332 332 331 329 330 330 331 332 332 332 332 332 332 332 330 327 324 324 324 323 323 323 323 323 325 325 324 323 322 323 325 323 330 330 329 327 326 326 326 326 326
327 327 327 328 326 326 329 327 331 330 334 336 336 336 335 335 336 338 335 334 334 334 335 335 333 333 336 336 336 337 338 338 337 337 336 336 337 336 336 335 335 334 334 330 330 330 330 330 330 330 328 329 330 330 332 332 331 332 331 328 325 325 323 322 322 322 323 323 325 325 324 323 322 321 327 322 323 327 329 328 327 326 325 326 326
327 326 325 325 324 325 328 327 327 329 332 335 335 335 335 335 335 337 336 335 334 334 335 335 334 333 333 333 333 336 337 336 336 336 337 336 336 336 336 336 335 334 332 331 329 331 331 331 330 330 329 328 329 330 330 331 331 332 331 328 325 325 322 322 322 322 323 322 324 324 324 322 323 329 323 320 321 323 327 329 328 327 325 326 326
327 325 324 323 323 323 324 327 326 329 331 333 334 334 335 335 336 337 337 335 335 335 335 335 334 334 334 333 332 333 334 334 333 335 335 334 334 335 336 336 335 334 332 331 331 331 331 331 330 329 328 329 327 328 329 330 331 331 331 329 325 324 323 322 322 327 322 322 322 323 323 322 323 323 321 320 320 321 322 326 329 328 327 326 326
325 324 323 324 324 324 325 327 330 330 333 334 335 334 335 335 336 336 336 335 335 336 336 335 335 335 334 334 334 335 336 335 334 334 334 334 334 332 331 335 335 334 332 331 331 331 331 331 330 329 328 328 328 328 329 330 330 331 330 329 326 324 323 323 323 323 321 322 322 324 323 321 322 322 320 320 320 320 320 321 322 323 324 328 327
324 324 325 323 324 323 325 325 327 330 332 334 335 335 334 334 333 334 334 335 335 336 336 335 335 335 336 336 336 335 336 336 335 335 335 335 334 334 332 332 332 333 333 331 330 331 330 329 330 329 327 326 328 328 329 330 329 329 329 327 327 325 323 324 323 322 322 321 321 322 321 320 320 321 321 320 320 320 320 320 322 319 320 326 328
324 322 322 324 324 322 325 325 327 330 333 333 335 335 332 332 332 332 332 333 334 335 336 336 335 336 336 336 336 336 336 336 336 335 335 337 334 334 333 332 332 332 334 332 331 331 331 330 330 330 328 324 325 325 328 330 327 323 325 326 326 328 326 325 323 322 322 321 321 321 320 320 319 320 320 320 320 320 320 320 320 319 319 319 325
318 318 320 325 325 323 324 326 328 331 333 333 334 335 332 329 327 328 328 331 333 333 333 335 335 336 337 337 337 336 336 336 338 336 336 335 333 333 333 331 332 330 332 333 331 334 331 330 330 327 328 326 324 325 328 328 323 324 321 321 323 325 327 327 324 323 323 322 321 321 320 320 319 320 320 320 319 320 320 320 320 319 319 318 319
316 315 316 318 322 325 326 326 329 332 333 334 334 334 329 329 328 327 328 330 333 335 335 336 336 335 336 337 337 337 336 336 337 337 335 335 334 333 332 332 331 331 330 330 331 330 330 330 329 328 325 325 325 327 328 329 322 322 324 323 316 319 322 324 325 325 324 323 322 321 321 320 320 321 320 319 319 319 320 320 320 319 319 319 319
317 315 316 316 319 321 321 325 329 332 334 335 336 334 329 327 327 330 332 330 329 332 333 334 334 334 334 336 337 337 337 336 337 336 336 335 334 333 332 332 332 332 331 330 329 329 329 328 329 329 328 325 324 325 328 328 327 325 319 317 315 317 313 320 323 322 326 324 323 322 322 321 320 321 320 319 319 319 319 320 320 320 319 319 319
313 315 315 316 319 318 319 322 328 331 334 336 331 333 330 328 329 330 330 329 330 329 329 330 331 332 333 334 335 337 337 336 336 336 337 334 334 334 333 332 333 333 334 333 330 329 328 328 330 329 327 326 324 322 326 327 328 331 325 319 317 315 315 313 318 321 322 323 323 323 323 322 321 321 320 319 320 320 319 319 320 320 319 319 319
311 313 314 316 318 317 319 320 323 330 333 334 331 333 333 328 326 324 323 325 325 325 325 326 327 329 330 332 335 337 336 336 336 336 336 336 334 334 333 333 333 334 335 334 332 330 328 328 329 329 328 326 326 322 323 325 327 329 329 328 326 320 318 315 319 316 320 323 324 324 323 323 323 321 321 320 319 319 320 319 319 319 319 319 319
310 312 313 314 315 316 318 319 320 324 331 332 332 333 333 330 325 325 324 324 323 324 326 328 327 329 331 332 333 335 336 335 335 335 335 336 335 334 333 334 335 335 336 335 333 331 330 330 330 329 329 328 326 324 323 325 324 328 328 326 324 321 323 320 317 311 314 318 322 324 324 324 323 322 321 321 320 320 319 320 319 319 319 319 319
310 311 312 313 313 314 316 318 319 322 329 330 331 332 332 327 325 324 325 324 325 324 325 328 330 331 331 332 332 333 335 335 335 335 335 335 335 334 334 335 336 337 337 335 334 333 332 332 332 331 330 329 327 326 323 325 325 325 327 326 325 323 325 324 322 321 316 314 318 321 324 325 323 323 323 322 321 320 319 319 320 319 319 319 319
310 311 311 311 312 313 316 317 317 318 324 328 330 330 331 326 328 326 325 325 326 326 327 330 331 333 331 331 332 333 334 335 335 334 334 334 336 335 335 336 337 337 338 336 335 334 333 332 330 330 329 328 328 328 325 324 325 325 325 324 323 323 323 323 324 323 316 314 314 319 321 321 323 323 323 324 323 322 321 321 321 320 320 319 319
309 311 311 311 311 312 313 314 315 316 321 324 327 326 328 328 327 327 325 324 326 327 327 326 329 331 331 331 331 332 333 333 334 334 333 334 335 335 336 337 338 338 338 337 336 335 334 333 332 331 330 329 328 328 327 325 327 326 327 326 323 319 319 320 320 321 318 318 315 317 321 320 319 322 323 323 324 323 322 322 322 322 321 319 319
307 307 308 309 310 311 312 311 313 314 316 322 322 325 322 325 326 327 325 324 325 325 325 325 326 328 329 329 330 331 332 333 334 334 334 334 334 336 336 337 338 339 339 338 337 336 335 334 333 332 330 330 329 328 327 326 326 326 326 326 325 323 319 320 320 321 321 316 315 316 319 322 322 321 322 324 324 325 324 323 322 322 321 320 320
Wind_Speed
7 7 7 12 13 14 15 15 16 17 16 16 17 17 16 16 17 17 16 16 16 16 16 17 18 19 18 19 19 18 18 18 19 18 18 17 17 17 18 18 18 18 18 18 19 19 19 19 18 18 19 19 19 18 17 16 17 16 17 18 18 18 18 18 19 19 19 18 18 17 17 17 18 18 18 18 18 18 18 18 16 11 8 13 18
12 8 8 10 15 14 15 16 16 17 16 17 18 18 17 16 16 16 16 17 16 16 16 19 19 18 18 18 18 18 18 18 17 17 17 17 17 17 17 17 18 18 18 18 19 19 18 18 18 18 18 19 19 18 17 16 16 17 17 18 18 18 17 18 18 19 19 19 18 18 19 19 18 18 18 19 19 18 17 17 17 8 7 16 18
13 10 9 11 15 15 15 16 17 17 16 17 18 18 17 16 16 16 15 16 16 16 17 18 18 18 17 18 18 18 17 17 17 17 17 17 17 17 17 17 17 18 18 18 18 18 18 17 17 17 18 18 18 17 17 16 16 17 17 17 18 17 17 17 18 18 17 18 17 18 18 19 18 18 18 19 18 18 17 17 17 14 10 18 17
14 9 9 13 16 15 15 16 17 18 17 17 19 19 18 17 17 16 16 15 17 16 17 18 18 17 17 17 17 17 16 16 16 16 16 16 16 16 17 17 17 17 18 18 18 17 17 16 16 17 18 18 17 16 16 16 16 16 17 16 16 17 18 18 17 17 17 17 17 13 6 6 12 19 19 18 17 17 17 17 18 18 18 17 18
13 10 10 12 12 14 16 16 16 17 17 17 18 19 18 18 18 17 16 15 15 16 17 17 18 17 17 17 17 16 16 15 15 15 14 14 14 15 16 16 16 17 17 17 17 17 15 15 15 16 17 16 15 15 14 14 14 13 12 13 13 13 13 12 12 18 17 17 16 10 5 6 8 16 17 17 16 16 17 17 18 18 18 18 18
12 11 11 11 11 13 17 16 16 18 17 17 19 19 19 18 18 17 16 16 16 16 16 18 18 17 17 17 16 16 15 14 14 14 13 13 12 15 15 16 16 16 16 16 17 17 15 14 15 15 16 15 14 14 13 12 11 10 9 9 9 9 10 12 16 17 16 16 12 5 5 5 6 9 18 17 16 17 19 19 17 17 18 19 18
14 10 10 13 10 12 17 16 17 18 18 17 18 18 18 18 18 17 17 16 15 16 16 17 17 17 17 16 16 16 15 14 14 14 13 13 12 13 14 15 15 15 15 16 16 16 14 13 14 15 15 14 13 12 11 10 9 8 8 14 20 21 20 19 17 17 15 8 5 4 5 6 6 6 15 16 17 18 18 17 16 17 17 17 18
11 10 10 12 10 14 17 17 17 18 18 18 19 19 19 18 18 18 17 16 15 15 16 17 17 17 16 16 16 15 15 14 14 14 13 12 11 12 13 14 14 15 15 15 15 15 14 12 13 14 14 13 12 11 10 9 9 13 21 23 20 20 20 18 18 16 14 6 5 5 5 5 6 5 16 18 17 17 16 16 17 18 19 19 18
11 11 11 11 12 19 18 17 17 17 18 18 19 19 19 19 18 17 17 16 15 15 15 16 17 17 16 16 15 15 14 14 14 14 13 12 12 11 11 13 14 14 14 14 14 14 13 12 11 12 13 12 11 10 9 9 13 19 20 21 20 20 20 19 18 16 8 6 5 5 5 5 4 5 12 14 16 18 18 15 14 19 18 16 16
12 10 10 10 12 19 19 19 18 18 18 17 18 19 19 19 18 17 17 17 15 15 14 16 16 16 16 15 15 15 14 14 14 13 12 12 11 11 11 12 13 14 14 14 13 13 12 11 10 11 12 11 10 9 9 10 16 20 20 20 20 19 19 18 17 11 6 6 6 6 8 9 7 8 14 16 17 17 16 17 13 14 13 16 18
12 11 10 11 14 18 19 19 18 18 18 17 17 18 18 18 17 17 17 16 15 15 14 14 15 15 15 15 14 14 14 14 13 13 12 12 11 10 10 11 11 13 13 13 13 13 12 11 10 10 11 10 9 9 10 11 15 20 20 19 20 20 19 18 12 6 7 7 6 7 10 12 6 7 16 18 18 19 18 17 17 15 17 17 17
12 10 10 9 17 18 18 17 17 17 17 17 17 17 17 17 18 17 16 16 15 14 14 14 14 15 14 14 13 14 14 13 13 12 12 11 10 10 10 11 11 10 12 13 13 12 12 11 9 10 10 10 9 9 10 11 16 20 19 19 18 19 18 17 9 7 7 8 7 7 7 6 7 11 16 17 18 18 17 17 16 18 17 16 19
13 12 11 11 12 17 17 17 17 17 17 17 16 16 17 17 17 17 16 15 14 14 14 13 13 14 13 12 13 13 13 13 12 12 11 11 11 11 11 11 12 11 11 12 12 12 11 10 9 10 10 9 9 9 10 11 15 19 19 19 19 19 19 17 8 8 7 6 5 6 6 6 7 16 16 17 17 18 15 16 18 16 16 18 19
15 14 13 12 11 20 19 18 18 17 16 16 15 15 15 15 15 16 16 15 14 14 13 12 12 12 11 11 11 11 12 12 12 12 11 10 11 10 11 11 12 12 11 12 12 11 10 9 8 9 9 9 8 8 9 11 13 16 18 18 18 19 19 13 10 7 7 7 6 6 5 5 8 17 18 17 18 18 15 17 18 16 16 18 17
15 17 15 14 13 15 22 19 19 18 17 16 15 14 14 14 13 14 14 14 13 13 12 11 11 11 11 11 10 11 11 11 11 11 11 10 10 11 11 11 11 11 11 12 11 11 10 9 8 8 8 8 8 7 8 10 12 12 17 18 19 18 17 8 7 7 7 6 6 7 6 7 15 15 16 17 17 17 15 18 16 15 17 15 16
13 12 13 12 12 12 13 19 19 18 18 17 15 15 14 14 14 13 13 13 13 12 11 11 11 11 11 10 10 11 11 11 11 11 10 10 10 11 11 11 11 11 11 11 11 10 10 9 8 7 7 7 7 7 8 10 11 11 16 19 18 18 17 10 7 7 6 6 6 5 5 7 18 15 14 16 17 16 17 17 16 15 15 15 16
11 8 8 8 10 10 10 12 13 20 16 16 15 14 13 13 13 13 12 12 13 12 11 10 10 10 10 10 11 10 10 10 10 10 10 10 9 10 10 10 11 11 11 11 11 10 8 8 7 7 6 5 6 6 8 10 10 10 20 19 18 18 17 13 8 6 6 6 6 6 6 7 14 15 17 18 17 16 15 15 16 14 14 16 16
10 11 9 9 8 8 9 9 12 11 10 14 16 16 14 14 14 13 13 12 12 12 11 10 9 9 11 11 11 11 11 10 10 9 9 9 8 9 9 9 10 10 10 11 11 10 8 7 6 6 5 5 5 6 7 10 9 11 21 19 18 18 16 13 7 6 6 7 7 6 6 12 16 16 16 17 18 16 15 15 15 14 15 15 15
7 8 10 10 8 6 7 8 8 8 9 8 8 12 16 15 14 14 14 14 12 12 12 11 11 10 11 11 11 12 11 11 10 9 9 9 9 8 8 8 9 9 9 10 10 10 8 7 6 5 5 4 4 5 7 10 10 15 19 18 18 17 17 9 6 6 7 6 5 6 6 14 14 16 15 15 16 16 14 15 15 15 15 15 15
6 8 8 8 8 6 5 6 8 9 8 8 9 9 13 16 14 14 14 15 14 13 13 12 12 11 11 11 11 9 9 7 10 7 9 10 9 7 8 8 8 9 9 9 9 9 8 7 6 5 5 4 4 4 6 9 11 14 18 18 17 16 8 6 7 7 6 6 5 5 12 15 16 16 16 16 16 15 15 14 14 14 14 14 14
5 6 8 7 8 8 7 5 6 8 8 8 8 9 11 15 13 15 16 16 15 15 14 14 12 11 9 10 10 5 3 3 5 3 8 4 8 9 9 8 8 9 8 9 9 9 8 7 6 5 5 4 4 4 5 8 11 14 17 16 16 8 6 7 6 6 5 5 4 5 16 15 16 15 15 16 16 16 15 15 14 14 15 14 14
4 4 3 8 8 6 7 6 6 7 8 7 6 7 8 12 9 9 9 11 13 13 11 8 9 5 9 6 3 4 3 3 3 6 2 4 6 10 9 9 8 8 8 8 9 8 8 7 6 5 4 4 3 1 3 7 12 16 16 15 8 6 6 6 6 5 5 4 5 10 16 15 14 15 14 14 15 15 15 14 14 14 14 13 14
4 3 3 5 7 7 7 7 7 7 7 8 7 7 8 8 9 9 8 11 10 9 8 9 7 7 4 4 3 2 3 3 3 4 3 6 4 9 9 9 9 9 8 9 8 8 8 7 7 5 4 3 1 1 2 4 6 14 13 8 6 6 6 6 6 5 5 4 2 15 16 16 15 15 17 16 15 15 15 15 14 13 13 13 13
6 5 5 5 7 8 8 8 8 7 7 7 7 7 7 6 7 7 7 7 7 7 7 8 7 7 6 5 5 3 3 3 7 9 8 3 4 8 9 10 10 9 10 7 8 7 8 7 6 6 3 1 0 1 2 3 5 6 6 6 6 6 6 5 5 5 5 5 5 14 14 15 14 11 13 15 14 14 14 13 14 13 13 13 13
6 5 3 7 9 10 9 9 8 6 3 2 6 7 6 6 5 6 6 6 5 5 5 6 7 7 6 6 5 4 4 4 2 3 3 3 1 2 3 3 3 3 8 2 3 4 4 2 2 2 1 1 1 0 1 3 5 6 6 6 6 6 5 5 5 5 4 4 6 14 14 15 14 12 13 14 14 14 14 13 13 13 13 13 12
7 7 6 9 10 9 8 8 8 8 6 2 1 4 6 5 4 5 6 5 6 5 5 5 5 6 5 5 6 6 5 5 3 3 4 4 3 3 3 3 2 3 3 4 3 3 2 2 2 2 2 2 2 1 1 3 5 7 6 6 6 5 5 5 5 5 4 4 7 15 14 14 15 13 11 13 14 14 13 13 13 13 13 12 12
7 8 5 3 4 5 5 6 5 5 6 6 4 4 2 2 3 4 5 4 5 6 5 5 5 5 5 5 6 6 6 5 4 4 5 4 4 4 4 3 3 3 3 4 3 3 3 3 3 3 2 2 2 1 2 3 5 8 7 6 5 6 5 5 5 5 4 4 6 14 14 13 14 14 13 10 12 13 12 11 11 12 12 12 12
4 3 4 4 5 6 7 9 8 9 7 6 5 2 2 5 5 6 5 5 5 5 5 5 4 5 5 5 4 5 6 6 5 5 5 4 4 4 4 4 4 4 3 4 4 3 4 3 3 2 3 3 2 1 2 4 6 7 7 6 5 5 5 5 5 5 4 4 4 10 13 13 12 13 13 12 11 11 12 12 11 11 11 12 11
4 3 4 5 3 4 8 10 10 10 9 10 11 6 2 3 4 7 7 8 5 5 5 5 5 5 5 5 4 5 5 5 6 5 5 5 4 4 4 5 4 4 4 4 4 4 4 4 4 4 3 3 3 2 2 3 5 6 6 6 6 5 5 6 5 5 4 4 4 7 13 14 12 12 14 14 12 12 12 12 11 11 10 10 11
3 3 4 4 3 4 6 7 8 8 8 8 8 9 8 5 5 5 6 9 7 6 5 5 5 5 5 5 5 5 5 6 6 5 6 6 5 4 5 5 6 5 5 6 5 4 5 4 4 4 4 4 3 3 3 3 5 6 6 6 6 6 6 6 6 5 4 5 4 5 13 13 14 13 13 14 14 12 11 11 11 11 12 11 10
5 4 3 5 5 6 6 8 9 9 8 8 7 7 6 6 4 5 6 7 8 8 6 5 5 5 5 5 5 4 5 6 6 6 5 5 5 5 5 5 5 5 6 6 5 6 5 6 6 6 5 5 5 4 4 4 4 6 7 7 6 5 5 5 5 5 5 5 4 4 7 12 11 12 12 10 11 13 12 11 11 11 11 10 10
8 7 7 6 7 8 10 10 10 10 9 9 8 7 7 6 4 5 7 7 7 9 9 7 6 5 4 5 4 4 4 5 6 5 5 6 5 5 5 5 6 5 6 6 6 6 7 7 6 5 6 5 5 4 5 5 4 5 7 7 6 6 6 6 6 6 5 5 5 4 4 6 11 10 11 13 14 14 12 12 11 11 11 11 11
4 6 6 7 8 9 9 9 9 9 10 10 9 8 7 7 6 5 6 6 6 5 8 9 8 7 6 6 5 5 4 5 5 5 5 6 6 6 6 6 6 6 6 7 6 6 6 5 6 5 4 3 3 4 3 4 5 5 7 8 7 6 6 6 6 6 6 5 5 5 4 4 5 10 11 10 12 13 13 12 12 10 11 11 11
2 3 4 7 3 2 1 5 7 10 11 9 8 7 8 8 8 6 4 5 5 6 5 6 9 9 8 7 7 7 5 4 4 5 5 5 6 6 7 7 6 5 6 6 6 6 7 6 6 5 6 5 5 6 5 5 5 5 7 8 7 7 7 6 6 7 6 6 5 5 5 4 5 4 5 11 12 11 13 13 12 12 11 11 11
1 2 5 2 7 2 1 0 4 5 5 6 8 8 7 7 8 7 6 5 5 6 4 3 5 8 9 8 8 7 6 5 4 5 5 5 6 6 7 7 6 6 6 6 7 7 7 7 6 6 6 6 6 5 6 6 6 6 8 8 7 7 6 7 6 6 6 5 5 5 5 5 5 5 5 5 9 13 14 14 14 13 13 12 12
2 4 5 4 4 2 1 1 1 3 5 6 6 8 9 8 8 9 7 7 6 5 7 6 2 1 2 7 8 7 6 6 5 5 5 5 6 7 7 7 7 6 6 6 6 7 7 7 6 7 6 7 6 6 6 6 6 7 7 8 7 8 7 6 7 7 6 5 6 6 5 5 5 6 5 5 5 8 16 15 14 14 13 13 13
3 5 5 4 1 1 0 0 3 3 3 4 6 7 9 11 10 10 10 9 8 7 7 7 6 5 1 2 5 8 7 5 3 1 2 5 6 7 7 8 7 7 7 6 7 8 7 8 6 6 7 7 7 7 5 7 7 7 7 8 8 8 7 7 7 7 5 6 6 6 6 6 5 6 5 6 5 6 11 15 15 14 14 13 13
2 2 3 3 2 2 3 4 2 3 3 3 5 6 7 8 7 7 9 8 9 8 6 7 7 7 7 6 4 5 7 9 8 6 5 4 5 7 7 9 8 7 7 7 8 8 7 8 7 6 7 7 7 7 7 6 6 6 6 7 8 8 8 7 7 6 6 7 6 7 7 6 6 6 5 5 5 6 5 10 15 15 15 14 14
2 2 2 4 4 1 2 3 5 5 5 4 4 4 4 5 5 6 8 10 9 8 6 7 8 8 8 8 8 7 6 7 8 9 7 6 5 2 9 11 8 8 8 7 8 8 8 8 7 6 4 6 8 7 8 7 5 5 6 6 7 8 7 7 7 7 7 8 8 7 6 6 6 5 6 6 5 5 5 5 5 6 8 16 14
1 1 3 4 4 2 0 2 3 4 3 4 4 4 5 7 8 6 7 9 10 9 8 9 7 8 9 9 8 8 8 8 7 6 7 8 8 8 5 6 10 7 8 8 8 7 9 8 7 6 6 3 3 6 5 6 4 5 5 3 5 8 7 8 8 8 7 7 7 5 7 5 6 6 6 6 6 5 6 5 5 6 5 10 15
3 3 4 5 4 2 1 2 3 4 5 5 6 6 5 4 4 8 9 8 8 8 8 8 8 8 9 9 9 8 8 8 7 8 8 7 8 9 10 6 2 10 9 9 8 8 8 7 7 4 6 5 4 3 4 6 6 2 1 1 2 3 8 8 9 8 7 7 6 6 5 6 6 6 7 6 6 6 6 6 6 5 6 5 8
6 5 6 6 5 3 2 3 2 4 5 6 6 6 7 3 1 4 4 5 6 8 10 9 9 7 7 8 8 8 8 9 9 9 9 8 6 6 8 9 6 3 11 7 8 8 7 6 5 4 3 7 5 5 6 6 4 7 5 0 1 2 2 6 7 7 8 6 7 7 6 7 8 7 5 6 6 7 6 6 6 6 6 6 6
5 4 4 6 7 6 4 3 4 5 6 6 5 5 2 5 3 4 9 10 6 7 6 7 7 8 7 6 7 7 8 7 8 9 9 7 6 5 6 8 9 6 4 11 6 7 7 7 6 7 4 2 3 4 7 6 5 3 4 5 3 3 4 1 3 6 7 7 7 7 8 8 10 8 7 7 6 7 6 6 6 7 7 7 6
11 8 8 6 5 7 7 3 5 5 5 7 6 4 5 4 10 7 3 4 4 3 2 1 3 4 7 6 5 5 7 7 8 8 9 9 8 8 7 9 9 11 10 10 8 8 7 5 5 5 6 5 3 4 4 6 5 8 4 3 3 4 3 8 6 3 7 8 8 9 8 8 8 7 5 8 8 7 7 7 8 8 8 8 7
10 9 10 8 6 6 6 6 3 5 6 5 5 6 5 9 7 1 3 3 4 3 3 1 2 2 2 4 7 5 6 7 8 10 10 10 10 9 10 9 9 11 11 11 10 8 8 7 7 5 6 6 6 2 3 4 5 9 8 4 2 2 5 1 3 6 2 4 7 7 8 8 8 9 8 9 8 8 8 8 8 8 8 8 7
10 10 9 9 9 10 8 8 7 3 6 3 7 9 7 8 3 1 3 4 1 2 2 5 1 3 4 0 2 3 4 6 8 9 10 8 10 11 10 10 10 9 10 11 9 7 7 7 7 6 6 4 6 4 3 3 4 7 7 8 7 6 5 2 4 6 1 3 4 7 8 8 8 9 8 8 9 9 7 8 8 9 8 8 8
10 10 9 9 11 11 10 8 7 6 3 3 8 9 9 4 5 3 3 6 5 3 1 2 5 6 1 1 0 1 3 4 5 6 8 9 9 9 10 9 9 8 8 8 9 9 8 7 6 7 7 6 4 6 6 6 3 6 5 3 2 2 8 7 6 1 2 3 3 6 7 7 7 8 9 9 10 9 8 8 9 9 9 8 8
8 10 11 10 10 10 10 10 9 7 5 3 4 6 5 5 8 10 9 7 7 8 11 7 7 7 7 7 5 5 4 4 5 6 7 7 7 8 8 9 9 9 8 8 9 8 7 6 7 8 7 7 8 8 7 7 9 7 5 6 5 3 7 7 6 10 6 5 7 3 3 7 7 8 9 10 10 10 10 9 9 8 8 9 8
10 10 10 9 9 9 9 9 10 9 7 3 3 4 3 0 4 7 9 8 7 4 5 7 10 9 8 5 7 7 6 5 5 6 6 7 7 7 7 8 9 9 10 9 8 9 11 10 8 7 7 7 8 8 8 8 8 9 7 7 5 5 4 5 6 6 5 5 6 8 7 3 4 7 8 8 9 9 10 10 10 9 9 9 9
9 10 12 11 11 9 10 10 10 9 8 4 4 4 3 6 7 7 7 6 7 7 6 6 3 2 7 7 7 7 7 7 6 7 7 7 7 7 7 9 10 9 9 11 10 10 10 11 11 10 9 10 8 9 9 7 8 7 8 7 7 3 2 3 3 6 2 3 6 6 8 9 9 10 7 9 9 9 9 9 9 9 8 8 9
12 11 11 12 12 11 10 10 10 10 9 6 4 6 2 6 7 7 7 7 7 7 7 7 5 4 6 6 6 6 6 8 8 7 7 7 8 8 9 9 8 8 9 10 11 11 11 10 9 10 11 11 9 8 7 6 6 6 6 7 9 8 7 6 5 5 6 3 2 4 5 8 12 9 9 10 9 10 9 8 9 9 8 9 9
Wind_Direction
177 155 157 154 149 146 143 140 137 135 131 127 123 121 118 116 115 114 114 112 109 106 104 104 105 105 104 105 104 105 105 107 107 107 107 108 109 110 110 110 110 110 110 110 108 106 105 104 103 102 99 96 96 95 94 95 98 97 97 95 94 91 88 86 83 81 81 79 77 76 76 76 76 77 77 78 76 75 75 76 77 76 74 76 77
155 160 155 158 151 149 145 143 140 137 132 129 127 125 122 120 117 117 116 116 112 109 108 108 107 107 108 107 107 107 108 109 108 109 110 110 111 111 111 110 110 110 110 110 109 107 108 106 104 102 99 97 97 97 98 99 99 100 102 102 99 95 91 87 84 80 78 76 76 76 74 74 74 75 76 77 77 77 77 79 78 74 76 80 78
134 150 155 155 152 149 146 144 142 138 133 131 131 129 126 122 121 120 118 116 114 113 112 111 111 111 111 110 110 110 110 110 111 111 111 112 112 112 112 111 111 111 112 111 109 108 108 108 106 104 102 100 98 99 99 98 98 100 104 103 99 97 95 89 85 82 77 75 74 72 72 78 80 80 80 79 79 78 79 80 80 79 81 80 79
132 151 155 152 152 149 145 145 144 140 136 135 134 132 130 128 126 125 122 120 118 117 116 115 115 115 114 113 112 113 112 112 112 112 112 113 113 113 113 112 112 112 112 113 112 111 110 109 107 105 103 100 99 100 99 101 101 104 106 102 98 100 95 88 86 84 81 79 76 71 62 60 77 81 81 81 80 81 83 86 85 84 83 82 83
132 147 154 151 151 149 147 146 145 142 138 138 137 135 133 131 130 128 126 125 123 121 120 119 119 118 117 116 115 115 114 113 112 110 112 113 113 115 114 115 114 115 115 115 115 114 113 111 109 106 104 103 102 101 100 100 100 101 106 111 115 109 92 83 80 89 85 81 80 72 67 69 79 85 88 84 85 94 94 92 86 82 83 84 85
144 149 152 150 152 151 147 147 148 145 140 140 140 138 136 134 132 131 130 129 128 126 124 123 122 120 119 118 117 117 116 114 112 111 111 113 115 117 118 117 116 116 116 116 116 114 114 110 109 108 105 104 102 99 96 95 92 93 99 103 97 97 121 122 98 92 92 87 79 69 70 77 89 91 91 90 91 87 84 83 86 84 82 86 86
144 149 152 153 150 152 149 148 149 148 143 143 142 141 139 136 135 134 133 133 131 130 128 126 123 122 121 119 119 119 117 117 114 113 114 116 119 120 119 120 119 118 118 116 116 115 115 112 109 107 107 102 97 94 89 84 77 73 76 91 97 93 99 103 98 97 91 79 66 61 63 74 68 70 89 93 89 86 89 86 85 90 93 89 89
141 146 152 154 150 153 151 151 149 147 144 147 145 144 143 139 137 137 136 135 133 132 130 129 126 124 123 122 122 121 120 119 118 116 117 119 118 122 123 121 121 120 119 118 117 116 116 113 110 108 106 99 93 91 85 77 68 77 98 100 97 97 96 98 100 98 90 80 73 67 66 68 86 89 85 83 86 86 83 86 92 87 79 84 83
146 150 152 151 154 153 152 152 151 147 145 149 148 147 145 143 140 138 137 135 134 132 132 130 128 126 126 125 125 124 122 121 119 118 118 120 122 121 122 124 123 121 120 119 117 116 116 114 111 110 105 98 95 90 81 72 77 99 100 100 99 99 98 97 98 95 87 82 69 65 71 81 77 82 94 92 88 88 88 86 82 85 89 86 84
148 149 152 152 154 155 154 153 151 148 146 148 148 148 146 144 141 139 138 136 134 133 133 132 130 128 128 128 128 127 125 122 120 120 121 122 125 126 128 127 126 123 121 118 118 116 116 115 113 110 102 98 92 82 74 68 85 102 100 100 101 100 100 100 98 90 82 79 78 79 83 76 82 93 93 91 94 99 97 94 95 91 94 91 90
146 148 150 153 155 154 155 152 150 148 148 147 149 148 147 143 140 139 139 137 136 135 134 134 132 131 130 130 130 129 127 125 122 123 124 124 124 126 125 125 126 124 122 120 119 118 118 117 115 108 101 97 89 76 68 63 79 105 106 104 103 103 101 97 84 75 77 76 75 78 79 78 76 77 96 98 95 92 93 91 89 97 90 85 87
142 144 147 150 155 153 154 151 149 148 147 147 148 149 147 144 142 140 139 138 138 138 137 136 135 133 132 131 131 131 130 127 126 124 124 124 122 121 122 125 126 123 122 121 118 117 116 117 114 108 103 98 84 71 67 63 81 102 103 102 102 103 100 94 90 84 82 80 84 88 91 79 93 102 98 99 99 93 87 94 99 87 90 98 88
142 146 148 151 150 155 153 151 149 149 147 147 150 150 148 146 144 142 141 141 140 140 140 139 138 135 134 132 133 133 133 130 127 126 126 126 125 122 121 122 123 123 121 117 113 114 116 116 115 110 107 99 84 74 69 70 80 99 107 108 107 104 101 97 92 90 87 84 77 71 79 89 91 94 98 102 100 95 101 101 89 93 97 90 86
149 151 153 152 154 156 154 151 150 149 148 147 147 148 148 146 144 143 143 142 140 141 141 141 138 136 135 135 134 136 135 132 129 129 129 128 125 122 119 117 121 124 123 115 113 113 115 116 115 113 109 100 86 77 71 71 77 94 106 109 109 107 104 100 97 94 92 89 87 80 76 83 95 99 100 99 97 97 99 94 92 97 92 86 89
156 157 155 153 156 158 156 154 152 150 149 148 147 147 148 146 144 143 143 141 139 141 142 142 139 138 138 138 138 138 138 133 132 132 133 129 127 124 120 118 120 125 124 118 116 117 118 118 116 114 110 103 91 79 70 68 70 81 110 112 110 109 106 104 102 103 98 92 88 90 90 102 98 94 97 94 92 98 100 94 96 92 90 97 91
151 150 150 152 152 154 154 155 153 150 149 148 147 147 148 147 145 144 143 142 140 142 143 143 142 142 142 142 142 142 139 137 136 136 135 132 130 129 123 121 123 125 125 124 121 121 123 124 123 119 118 106 96 86 72 65 61 61 112 119 113 112 111 109 105 101 100 98 95 92 98 100 104 103 95 99 100 102 90 90 95 91 94 90 92
131 128 132 136 140 145 150 152 152 150 145 144 144 144 145 146 145 143 143 143 142 143 145 144 144 145 145 145 144 142 140 140 137 139 136 135 133 132 127 125 127 130 131 130 127 124 128 130 128 126 124 117 105 87 74 72 62 67 117 119 114 114 114 110 107 108 110 103 93 94 96 95 108 109 107 105 105 99 100 101 99 97 96 98 99
130 134 133 133 134 141 148 149 152 147 146 142 144 144 145 147 147 145 144 144 144 144 145 146 148 148 152 149 146 146 145 142 142 141 140 135 136 134 132 128 130 133 135 135 132 132 134 135 132 132 131 125 106 88 80 70 63 77 118 118 118 117 115 109 108 110 105 101 101 106 116 114 109 108 107 106 105 104 104 102 100 103 99 99 99
120 121 128 134 127 126 143 145 144 143 143 141 143 147 146 147 148 147 145 145 146 145 147 149 153 155 155 154 151 152 148 148 147 147 144 142 140 141 137 134 133 135 139 140 138 139 141 141 142 141 140 127 102 83 74 70 58 95 116 117 116 113 111 106 104 101 101 100 101 100 106 111 112 106 108 110 110 109 109 108 110 107 101 94 98
118 122 124 126 128 123 115 142 146 146 145 145 145 146 148 148 149 148 148 147 148 148 150 155 158 160 161 158 156 153 153 154 154 152 153 151 150 148 147 141 140 141 143 147 146 144 147 149 154 152 145 126 99 83 73 76 69 96 113 114 112 108 103 105 105 104 109 111 116 126 120 119 115 113 112 113 110 106 106 109 108 97 94 106 107
116 127 132 127 124 124 132 128 142 144 143 144 147 148 152 149 150 151 153 152 152 152 151 157 161 165 166 164 160 148 135 148 153 145 163 157 158 159 154 151 151 149 153 153 151 150 151 155 165 164 150 128 110 93 79 77 76 100 116 111 109 106 111 108 108 106 105 112 115 109 116 119 116 114 112 108 111 113 105 97 101 109 106 105 107
101 107 112 129 124 118 125 128 136 148 149 144 148 154 154 151 149 152 152 158 159 157 155 157 159 160 171 168 138 144 131 127 130 164 138 171 168 166 163 160 159 159 160 159 156 156 155 161 174 168 152 134 115 50 63 81 82 104 116 110 102 107 110 110 106 109 108 113 122 123 119 116 115 118 116 112 111 111 111 110 102 103 110 107 104
84 89 117 127 127 125 130 136 147 153 154 149 150 155 154 152 152 151 156 159 163 160 158 161 151 156 161 139 128 126 128 126 149 161 154 177 181 174 172 171 167 167 168 163 162 162 159 171 180 173 159 139 60 39 47 65 75 98 108 102 107 109 113 111 104 110 118 124 135 123 124 123 120 121 123 119 115 115 116 117 116 109 107 110 107
135 159 154 130 136 146 150 148 151 156 158 156 148 149 149 155 153 150 155 154 159 158 162 158 156 156 153 137 135 136 131 139 174 178 176 172 190 182 183 179 174 172 172 164 166 167 169 176 185 177 161 94 59 37 54 56 79 96 110 109 112 117 116 118 116 117 123 132 130 126 123 119 121 124 116 117 120 120 116 112 114 117 112 111 115
146 146 136 150 159 160 153 148 144 141 132 146 144 141 142 143 144 143 144 146 143 143 151 151 158 156 151 149 149 147 149 158 167 171 144 145 199 188 190 183 175 177 175 131 152 171 166 190 203 179 270 207 225 301 98 87 87 107 118 119 119 120 117 117 117 111 111 114 120 123 121 124 126 130 128 126 124 121 124 124 118 117 116 115 116
139 143 163 169 167 159 151 147 145 138 121 70 66 130 131 133 139 140 137 142 138 143 143 145 156 159 151 157 155 152 158 167 178 165 151 148 174 194 194 180 181 194 164 162 162 162 173 201 209 210 235 254 236 252 178 122 107 117 123 123 123 125 126 122 121 118 120 125 131 132 132 128 131 131 123 128 131 129 128 126 127 123 120 120 118
152 165 147 116 118 130 130 125 107 88 96 108 98 69 75 121 131 137 135 149 139 142 148 145 163 160 160 163 163 163 163 172 179 165 163 163 177 190 190 189 185 200 178 170 179 174 184 198 206 219 241 251 259 242 153 117 111 125 126 128 129 131 133 132 128 125 127 125 139 137 133 135 136 135 132 121 125 130 130 125 129 127 125 122 121
105 87 77 91 104 115 123 115 106 101 80 53 36 22 147 160 168 162 151 163 149 152 152 155 163 170 169 174 168 166 167 174 181 169 172 166 189 187 185 193 191 203 191 185 176 185 194 206 204 219 222 237 251 230 155 123 112 124 127 130 131 133 138 136 133 133 139 140 143 142 138 141 138 138 136 137 129 131 133 136 130 126 131 127 124
94 92 89 101 115 124 126 122 122 126 140 149 143 153 258 252 197 174 164 169 162 167 158 155 170 179 181 182 173 172 174 179 182 177 160 183 186 187 187 199 195 195 185 203 190 188 202 206 205 207 213 234 246 217 182 129 122 130 132 134 138 138 141 141 140 140 143 146 143 147 145 144 146 146 141 141 143 139 144 141 136 131 123 124 129
74 76 96 89 82 86 101 121 131 140 151 155 165 164 163 187 210 213 190 167 165 162 162 166 174 177 192 194 186 176 181 184 185 176 169 186 186 191 197 204 201 193 190 200 199 194 199 206 212 209 206 220 226 214 183 161 134 135 139 139 145 150 150 147 150 151 154 149 158 154 151 149 151 149 148 151 148 147 143 133 138 144 139 136 133
112 107 124 126 124 120 134 150 156 160 154 154 173 184 153 153 185 205 200 188 167 157 165 174 176 182 192 197 200 190 179 189 188 182 179 181 186 193 208 207 211 202 200 202 196 201 203 201 200 203 205 211 215 205 186 181 161 141 146 147 151 150 153 149 148 154 157 159 163 161 157 155 149 157 161 147 147 147 146 147 148 136 138 142 141
149 168 174 161 151 157 163 173 169 166 162 172 177 175 167 165 170 188 197 193 182 173 167 174 186 182 179 193 206 204 188 193 190 186 187 183 187 198 212 211 217 213 205 201 201 201 207 208 204 204 209 202 210 209 198 178 181 154 149 151 152 156 159 156 154 163 164 166 167 169 160 158 157 151 148 148 153 155 153 152 151 154 150 146 145
186 160 163 169 175 171 166 176 168 169 173 176 177 179 170 168 169 204 202 188 181 196 184 176 179 183 177 181 196 206 204 193 194 193 189 191 191 198 211 216 219 216 209 207 205 208 213 214 215 209 209 213 205 216 207 192 181 166 150 155 155 161 164 160 160 165 172 171 174 166 165 161 162 161 157 158 163 160 156 156 159 155 146 149 154
133 172 157 198 178 65 105 167 181 180 183 177 170 170 172 178 171 177 233 226 188 184 204 194 181 183 181 176 182 199 206 198 196 199 192 193 199 204 211 217 219 217 215 210 211 208 213 208 214 193 206 197 210 210 190 197 198 166 148 157 161 164 166 166 169 172 169 176 175 169 170 164 163 165 169 171 175 163 154 160 161 158 157 159 157
86 170 207 43 47 37 20 284 194 199 194 181 174 175 180 189 171 170 185 219 215 191 187 250 215 191 181 179 180 184 195 197 202 200 201 197 204 210 212 219 216 213 214 215 214 217 214 214 198 198 206 205 205 205 192 196 184 173 151 160 166 167 168 170 170 171 175 175 173 176 174 171 169 172 182 174 180 165 162 165 166 164 163 163 164
352 356 4 41 58 19 17 334 254 218 195 192 189 181 181 191 186 175 177 187 219 209 190 185 197 324 190 164 166 177 183 190 192 196 206 207 211 214 215 214 217 212 218 216 216 220 223 222 205 195 195 214 196 199 194 186 186 177 156 159 167 167 170 167 174 177 177 167 181 180 178 180 177 177 185 183 181 173 170 171 170 169 168 167 167
3 6 355 349 82 83 111 273 231 238 229 204 193 194 193 193 199 178 182 183 200 211 202 179 161 162 201 166 149 143 134 121 115 131 230 225 217 219 219 216 212 212 211 216 216 220 218 224 211 204 188 191 191 182 191 183 184 182 177 148 170 167 170 175 179 180 168 180 186 185 179 188 187 185 176 182 181 181 181 180 174 175 174 173 173
352 3 320 325 314 209 173 184 200 220 240 243 206 208 220 214 218 187 172 186 207 209 201 182 177 175 170 181 186 169 161 158 151 134 113 67 360 317 264 219 211 212 211 208 216 220 218 216 207 209 188 172 178 172 186 191 180 180 191 148 169 171 175 176 179 175 180 184 190 191 188 185 189 186 178 178 179 177 183 187 180 180 181 181 182
3 2 315 321 337 311 191 197 190 199 201 201 226 210 214 235 235 194 189 197 198 198 195 199 189 180 185 181 178 182 187 191 176 157 140 132 118 61 317 292 235 208 211 205 215 218 215 214 200 200 191 184 171 181 180 179 178 181 193 161 166 176 174 176 174 179 188 193 192 191 176 188 193 185 183 182 185 182 185 186 181 181 187 189 189
323 337 309 311 315 339 254 195 196 199 203 196 182 211 204 204 205 216 208 205 204 196 193 205 193 188 192 182 179 176 178 182 167 160 159 154 154 160 166 290 296 260 209 209 212 212 208 206 208 183 178 208 227 174 167 164 163 172 187 156 168 166 173 177 179 188 187 193 197 182 189 183 193 193 189 187 186 191 185 187 187 186 189 197 194
25 325 328 305 295 276 321 261 219 194 195 204 201 190 207 229 241 220 219 216 207 202 197 201 199 200 191 189 182 174 170 170 161 161 178 179 180 174 153 149 300 293 250 211 201 208 212 198 195 196 173 177 213 194 180 156 141 97 11 123 113 168 180 175 185 188 193 195 192 190 189 180 196 196 197 189 190 193 191 190 191 186 193 200 199
356 10 7 336 303 302 222 251 224 206 211 214 218 202 179 142 260 321 349 305 229 208 210 199 195 194 198 195 185 178 172 169 165 176 191 181 183 185 155 147 144 271 294 242 195 200 208 214 183 202 217 174 200 178 179 134 171 163 148 54 325 327 163 179 188 197 197 192 192 195 188 193 195 200 193 192 195 197 199 194 187 191 193 195 201
335 3 355 1 344 328 292 221 228 213 218 216 214 216 138 121 100 233 207 223 224 225 228 208 181 184 197 204 196 185 175 175 172 178 186 193 196 178 176 166 158 150 262 275 207 194 194 204 198 183 211 241 193 196 177 188 156 160 139 130 210 195 295 268 197 201 200 196 191 198 196 198 201 196 192 192 196 199 204 198 193 193 196 198 197
339 347 354 356 345 340 333 285 224 227 227 221 218 205 190 216 206 227 314 348 331 308 265 170 168 161 202 205 223 197 180 180 182 182 187 188 182 188 182 189 181 162 185 227 239 195 186 200 210 206 169 200 204 228 211 189 148 140 176 190 181 151 234 241 230 246 191 195 190 200 199 202 202 198 185 198 202 199 201 198 200 197 199 199 198
343 343 343 340 336 333 322 326 275 227 228 220 200 265 204 234 228 360 23 30 340 9 305 277 166 166 174 208 223 208 191 189 189 192 192 191 187 189 186 194 186 186 182 202 215 201 190 186 191 195 194 186 216 211 243 223 190 181 145 121 94 185 217 222 166 267 158 188 211 204 200 201 196 195 194 204 204 203 198 200 204 202 202 200 199
350 339 339 338 339 332 333 333 332 270 241 214 166 220 216 208 218 102 295 326 255 23 328 311 264 157 177 200 295 253 229 209 201 199 197 187 192 194 191 185 195 195 195 190 194 192 191 190 191 189 202 205 186 190 219 244 242 219 193 180 171 175 175 207 127 249 287 203 202 208 208 203 195 194 199 200 200 205 203 205 202 205 203 201 201
346 337 343 344 339 336 330 332 332 330 276 212 177 209 223 183 191 131 143 182 175 188 153 301 334 327 304 151 237 257 222 221 220 208 203 201 198 196 194 192 192 197 205 194 185 188 189 189 186 191 196 192 183 201 198 204 236 258 246 268 246 171 151 133 199 103 284 275 205 210 225 214 201 194 198 203 200 200 206 206 203 204 204 202 200
338 347 344 342 339 333 331 333 333 338 315 227 198 202 210 153 179 191 200 228 226 185 175 194 194 199 213 203 162 192 205 209 215 215 210 207 205 204 199 195 195 193 194 205 193 183 181 187 188 192 190 189 192 200 200 195 195 217 222 234 238 235 179 172 158 181 184 189 231 240 242 221 217 213 201 200 200 200 202 208 208 203 204 205 201
349 342 336 331 330 332 333 334 332 333 329 265 236 221 185 357 220 206 207 219 216 210 238 208 183 187 207 199 178 175 183 197 207 212 214 209 209 210 207 208 206 198 191 195 196 184 184 183 183 184 195 198 196 202 195 203 199 206 193 228 230 232 204 199 184 179 159 183 238 208 215 226 240 235 221 208 202 200 201 204 208 203 200 203 201
342 338 335 334 333 332 333 335 328 324 321 295 267 253 158 173 219 234 227 214 195 213 219 245 280 220 193 195 190 179 178 181 198 212 211 210 210 209 218 218 214 206 198 194 188 189 191 194 191 188 190 199 201 199 206 197 203 203 199 195 211 242 255 230 213 187 223 193 195 200 204 196 214 231 213 220 212 203 202 204 208 208 203 202 201
344 341 335 332 327 328 328 330 321 317 318 308 271 274 190 193 217 230 224 231 209 207 221 243 225 239 219 210 200 197 189 184 182 197 206 207 212 209 215 223 220 217 210 198 195 191 190 195 197 192 195 201 204 199 203 206 200 202 204 201 210 206 204 198 200 197 191 193 214 243 216 208 213 227 223 216 213 214 208 200 203 205 203 202 202